Weather History for KLAA - July, 2012

Change the Weather History Date:

Sunday, July 22, 2012

  Actual Average Record
Temperature  
Mean Temperature 90 °F 78 °F  
Max Temperature 104 °F 94 °F 109 °F (1937)
Min Temperature 75 °F 62 °F 48 °F (1992)
Degree Days  
Heating Degree Days 0 0  
Month to date heating degree days 0 0  
Since 1 June heating degree days 0 20  
Since 1 July heating degree days 0 0  
Cooling Degree Days 25 13  
Month to date cooling degree days 405 269  
Year to date cooling degree days 944 549  
Since 1 June cooling degree days 852 489  
Growing Degree Days 40 (Base 50)    
Moisture  
Dew Point 40 °F    
Average Humidity 18    
Maximum Humidity 25    
Minimum Humidity 11    
Precipitation  
Precipitation 0.00 in 0.10 in 1.80 in (1927)
Month to date precipitation 0.26 1.96  
Year to date precipitation 3.30 9.16  
Snow  
Snow 0.00 in - - ()
Month to date snowfall 0.0  
Since 1 June snowfall 0.0  
Snow Depth 0.00 in    
Sea Level Pressure  
Sea Level Pressure 29.88 in    
Wind  
Wind Speed 15 mph (SSE)    
Max Wind Speed 24 mph    
Max Gust Speed 33 mph    
Visibility 10 miles    
Events      
T = Trace of Precipitation, MM = Missing Value Source: NWS Daily Summary

Daily Weather History Graph

Daily Weather History Graph

Search for Another Location

Airport or City:

Trip Planner

Search our weather history database for the weather conditions in past years. The results will help you decide how hot, cold, wet, or windy it might be!

Date:

Astronomy

Jul. 22, 2012 Rise Set
Actual Time 5:45 AM MDT 8:08 PM MDT
Civil Twilight 5:15 AM MDT 8:38 PM MDT
Nautical Twilight 4:38 AM MDT 9:15 PM MDT
Astronomical Twilight 3:57 AM MDT 9:55 PM MDT
Moon 9:28 AM MDT (7/22) 9:57 PM MDT (7/22)
Length of Visible Light 15h 22m
Length of Day
14h 22m
Waxing Crescent, 14% of the Moon is Illuminated
Jul 22
Waxing Crescent
Jul 26
First Quarter
Aug 1
Full
Aug 9
Last Quarter
Aug 17
New

Hourly Weather History & Observations

Time (MDT) Temp. Dew Point Humidity Pressure Visibility Wind Dir Wind Speed Gust Speed Precip Events Conditions
12:53 AM 82.0 °F 39.9 °F 22% 29.90 in 10.0 mi South 19.6 mph 25.3 mph N/A   Clear
1:53 AM 81.0 °F 39.0 °F 22% 29.89 in 10.0 mi South 19.6 mph - N/A   Clear
2:53 AM 82.0 °F 37.9 °F 21% 29.88 in 10.0 mi South 21.9 mph 33.4 mph N/A   Clear
3:53 AM 79.0 °F 39.0 °F 24% 29.89 in 10.0 mi South 18.4 mph 25.3 mph N/A   Clear
4:53 AM 78.1 °F 39.9 °F 25% 29.89 in 10.0 mi South 17.3 mph 25.3 mph N/A   Clear
5:53 AM 78.1 °F 39.9 °F 25% 29.90 in 10.0 mi South 18.4 mph - N/A   Clear
6:53 AM 80.1 °F 41.0 °F 25% 29.91 in 10.0 mi South 18.4 mph 26.5 mph N/A   Clear
7:53 AM 87.1 °F 42.1 °F 21% 29.92 in 10.0 mi South 18.4 mph 24.2 mph N/A   Clear
8:53 AM 93.0 °F 46.0 °F 20% 29.91 in 10.0 mi South 13.8 mph - N/A   Clear
9:53 AM 97.0 °F 46.0 °F 18% 29.91 in 10.0 mi South 12.7 mph - N/A   Clear
10:53 AM 99.0 °F 43.0 °F 15% 29.90 in 10.0 mi South 16.1 mph 21.9 mph N/A   Clear
11:53 AM 100.0 °F 41.0 °F 13% 29.90 in 10.0 mi South 6.9 mph - N/A   Clear
12:53 PM 102.0 °F 42.1 °F 13% 29.89 in 10.0 mi South 10.4 mph 18.4 mph N/A   Clear
1:53 PM 102.9 °F 42.1 °F 13% 29.87 in 10.0 mi SSE 15.0 mph 23.0 mph N/A   Partly Cloudy
2:53 PM 102.9 °F 39.9 °F 12% 29.86 in 10.0 mi SE 13.8 mph 27.6 mph N/A   Clear
3:53 PM 102.9 °F 37.9 °F 11% 29.85 in 10.0 mi SSE 16.1 mph 24.2 mph N/A   Clear
4:53 PM 100.9 °F 37.9 °F 11% 29.84 in 10.0 mi SSE 13.8 mph 23.0 mph N/A   Clear
5:53 PM 100.0 °F 37.9 °F 12% 29.84 in 10.0 mi SSE 16.1 mph 20.7 mph N/A   Clear
6:53 PM 98.1 °F 37.0 °F 12% 29.84 in 10.0 mi SE 13.8 mph 24.2 mph N/A   Clear
7:53 PM 93.0 °F 37.9 °F 15% 29.84 in 10.0 mi SE 10.4 mph - N/A   Clear
8:53 PM 88.0 °F 37.9 °F 17% 29.86 in 10.0 mi SE 12.7 mph - N/A   Clear
9:53 PM 84.9 °F 41.0 °F 21% 29.88 in 10.0 mi SSE 11.5 mph - N/A   Clear
10:53 PM 82.0 °F 39.9 °F 22% 29.89 in 10.0 mi SSE 11.5 mph - N/A   Clear
11:53 PM 78.1 °F 39.9 °F 25% 29.91 in 10.0 mi SE 10.4 mph - N/A   Clear